{"data":{"norad_id":59437,"epoch":"2026-05-25T02:41:38.824224Z","epoch_age_seconds":58577,"freshness":"FRESH","line1":"1 59437U 24065S   26145.11225491  .00000502  00000+0  29062-4 0  9997","line2":"2 59437  53.1607 288.5807 0001077 107.2899 252.8220 15.30191446120605","mean_motion":15.30191446,"eccentricity":0.0001077,"inclination_deg":53.1607,"raan_deg":288.5807,"arg_perigee_deg":107.2899,"mean_anomaly_deg":252.822,"bstar":2.9062e-5,"rev_number":12060,"period_min":94.10587176946,"perigee_km":474.50250147181,"apogee_km":475.97871900906,"semimajor_km":6853.3776102404,"source":"CELESTRAK","updated_at":"2026-05-25T13:38:18.947110Z"}}